[[{"header":{"parameterUnit":"m.s-1","parameterCategory":1,"la1":30.2991,"la2":30.254,"lo1":-89.0895,"lo2":-89.0444,"dy":0.0017,"dx":0.0017,"nx":28,"ny":28,"refTime":"2025-08-09T21:00:00:Z","depth":0,"parameterNumber":2,"parameterNumberName":"U-component_of_WINDS"},"data":[0,0,0,0,0,0,0,0,0,0,0,0,0,0,0,0,0,0,0,0,0,0,0,0,0,0,0,0,0,0,0,0,0,0,0,0,0,0,0,0,0,0,0,0,0,0,0,0,0,0,0,0,0,0,0,0,0,0,-3.3873,-3.3873,0,-3.3852,-3.3852,-3.3852,-3.3774,-3.3773,-3.3771,-3.3769,-3.3749,-3.375,-3.3752,0,0,0,0,0,0,0,0,0,0,0,0,0,-3.3847,-3.3848,-3.3873,-3.3873,-3.3872,-3.3852,-3.3852,-3.3852,-3.3775,-3.3773,-3.377,-3.3768,-3.3749,-3.375,-3.3752,0,0,0,0,0,0,0,0,0,0,0,0,0,-3.3846,-3.3848,-3.3873,-3.3831,-3.3828,-3.3852,-3.3852,-3.3852,-3.3775,-3.3772,-3.377,-3.3767,-3.3749,-3.375,-3.3752,-3.3815,0,0,-3.3757,-3.3758,0,0,0,0,0,0,0,0,-3.3846,-3.3847,-3.3838,-3.3834,-3.383,-3.3813,-3.3835,-3.3839,-3.3776,-3.3795,-3.3769,-3.3766,-3.3773,-3.3772,-3.3774,-3.3814,-3.3813,-3.3757,-3.3758,-3.3759,-3.3759,0,0,0,0,0,0,0,-3.3846,-3.3847,-3.3865,-3.3838,-3.3833,-3.3814,-3.3811,-3.3836,-3.3799,-3.3793,-3.3788,-3.3786,-3.377,-3.3773,-3.3773,-3.3813,-3.3757,-3.3759,-3.376,-3.376,-3.3905,-3.3908,0,0,0,0,0,0,-3.3852,-3.3848,-3.3865,-3.3864,-3.3831,-3.3817,-3.3813,-3.3821,-3.3799,-3.3793,-3.3788,-3.3783,-3.3771,-3.3771,-3.3772,-3.3846,-3.3759,-3.376,-3.3761,-3.3903,-3.3906,-3.3909,0,0,0,0,0,0,-3.3851,-3.3854,-3.3866,-3.3854,-3.3854,-3.382,-3.383,-3.3822,-3.3825,-3.3795,-3.3788,-3.3798,-3.3769,-3.377,-3.3805,-3.3844,-3.3761,-3.3763,-3.3899,-3.3904,-3.3908,-3.3994,0,0,0,0,0,0,-3.3851,-3.3854,-3.3878,-3.3855,-3.3855,-3.39,-3.3832,-3.3824,-3.3828,-3.382,-3.3802,-3.3797,-3.3767,-3.3803,-3.3807,-3.3845,-3.3764,-3.3896,-3.3901,-3.3906,-3.3987,-3.4001,-3.4012,0,0,0,0,0,-3.385,-3.3903,-3.3879,-3.3882,-3.3884,-3.3902,-3.3902,-3.3867,-3.3831,-3.3855,-3.3836,-3.3797,-3.3839,-3.3808,-3.3811,-3.385,-3.3893,-3.39,-3.3906,-3.3982,-3.3998,-3.4011,0,0,0,0,0,0,-3.3931,-3.3899,-3.3873,-3.392,-3.3914,-3.3889,-3.3917,-3.3885,-3.3889,-3.3882,-3.3838,-3.3835,-3.3877,-3.3867,-3.3832,-3.3911,-3.386,-3.3867,-3.3916,-3.3931,-3.3943,-3.3945,-3.3765,0,0,0,0,0,-3.3954,-3.3971,-3.3942,-3.3987,-3.3985,-3.3952,-3.3958,-3.3932,-3.3924,-3.3922,-3.3905,-3.39,-3.3912,-3.3921,-3.393,-3.3985,-3.3981,-3.4014,-3.4026,-3.4036,-3.4044,-3.4073,-3.4088,-3.393,-3.393,-3.393,0,0,-3.4003,-3.3987,-3.4001,-3.4002,-3.3995,-3.4014,-3.3951,-3.3973,-3.3987,-3.3925,-3.3958,-3.3946,-3.3937,-3.3983,-3.4002,-3.3976,-3.4086,-3.4044,-3.4053,-3.4055,-3.4081,-3.4096,-3.411,-3.3935,-3.3934,-3.3933,0,0,-3.4101,-3.409,-3.4126,-3.412,-3.411,-3.4087,-3.4096,-3.4076,-3.4065,-3.4097,-3.4052,-3.4068,-3.4089,-3.4085,-3.4086,-3.4183,-3.4148,-3.4187,-3.4251,-3.4281,-3.4293,-3.4304,-3.434,-3.4353,-3.4194,-3.4194,-3.4194,0,-3.4162,-3.4189,-3.4149,-3.4175,-3.4178,-3.4122,-3.4159,-3.4155,-3.4148,-3.4152,-3.4122,-3.4148,-3.4138,-3.4183,-3.4207,-3.4209,-3.4218,-3.4189,-3.4294,-3.4305,-3.4314,-3.4348,-3.4362,-3.4199,-3.4199,-3.4198,-3.4198,0,-3.4265,-3.4285,-3.4315,-3.431,-3.4316,-3.4347,-3.4313,-3.4324,-3.4297,-3.4278,-3.4312,-3.4298,-3.4304,-3.4312,-3.4286,-3.4354,-3.4338,-3.4302,-3.425,-3.4335,-3.4366,-3.4379,-3.4206,-3.4205,-3.4203,-3.4202,0,0,-3.4414,-3.4387,-3.4399,-3.4397,-3.4381,-3.4395,-3.4424,-3.443,-3.4441,-3.4438,-3.4462,-3.4481,-3.4448,-3.4449,-3.4422,-3.4448,-3.4527,-3.4408,-3.4408,-3.4432,-3.4603,-3.4631,-3.4646,-3.4503,-3.4506,-3.4507,-3.4604,0,-3.4509,-3.4557,-3.4522,-3.4576,-3.4594,-3.4542,-3.4567,-3.4561,-3.4544,-3.4557,-3.4538,-3.4553,-3.4508,-3.4508,-3.4531,-3.4513,-3.4561,-3.4505,-3.4526,-3.4528,-3.4532,-3.4662,-3.4692,-3.4784,-3.4615,-3.4617,-3.4619,0,-3.4625,-3.4628,-3.4684,-3.4665,-3.4672,-3.4695,-3.4698,-3.4711,-3.4703,-3.4689,-3.469,-3.4656,-3.4684,-3.4632,-3.4671,-3.4633,-3.464,-3.4632,-3.4635,-3.4637,-3.458,-3.4669,-3.4812,-3.4826,-3.4637,-3.4636,-3.4635,0,-3.473,-3.4747,-3.4783,-3.4783,-3.4762,-3.478,-3.4772,-3.4761,-3.4767,-3.4769,-3.4773,-3.4779,-3.4782,-3.4788,-3.4757,-3.4722,-3.48,-3.4745,-3.4791,-3.4792,-3.4811,-3.481,-3.4958,-3.4813,-3.4812,-3.4812,-3.4812,0,-3.484,-3.4877,-3.483,-3.4853,-3.4893,-3.4853,-3.4893,-3.488,-3.4871,-3.489,-3.4845,-3.4864,-3.4821,-3.4836,-3.4812,-3.4849,-3.485,-3.4841,-3.4834,-3.4845,-3.4847,-3.485,-3.4844,-3.4816,-3.4815,-3.4814,-3.4814,0,-3.4964,-3.4935,-3.4971,-3.4948,-3.4943,-3.4974,-3.4954,-3.4974,-3.4954,-3.4979,-3.4983,-3.4952,-3.4967,-3.4937,-3.4948,-3.4932,-3.4984,-3.4966,-3.4986,-3.4982,-3.503,-3.5026,-3.5186,-3.5205,-3.5047,-3.5048,-3.5049,0,-3.5037,-3.5064,-3.5044,-3.5054,-3.5049,-3.5064,-3.507,-3.5032,-3.504,-3.5033,-3.5055,-3.5066,-3.5074,-3.5101,-3.508,-3.5088,-3.5072,-3.5127,-3.5073,-3.5084,-3.5074,-3.5074,-3.5077,-3.5139,-3.5141,-3.5142,-3.5144,0,-3.517,-3.5154,-3.5164,-3.5169,-3.5178,-3.518,-3.5179,-3.519,-3.5149,-3.516,-3.5176,-3.5181,-3.5193,-3.5206,-3.5209,-3.5201,-3.5167,-3.5161,-3.5172,-3.5185,-3.5196,-3.5192,-3.5019,-3.5158,-3.5156,-3.5155,-3.5154,-3.5154,-3.5272,-3.5294,-3.5283,-3.5296,-3.5292,-3.5292,-3.531,-3.5292,-3.5304,-3.5311,-3.5287,-3.5308,-3.53,-3.5301,-3.5297,-3.5314,-3.5289,-3.5305,-3.5309,-3.5314,-3.5323,-3.5192,-3.5314,-3.5313,-3.5313,-3.5313,-3.5312,0,-3.5403,-3.5394,-3.5406,-3.5407,-3.5417,-3.5382,-3.538,-3.5391,-3.541,-3.5405,-3.5413,-3.5431,-3.5443,-3.5423,-3.5432,-3.5449,-3.5433,-3.5453,-3.5452,-3.5451,-3.5343,-3.5333,-3.5466,-3.5465,-3.5465,-3.5465,-3.5465,-3.5465,-3.5473,-3.5509,-3.5492,-3.5526,-3.5516,-3.5536,-3.5538,-3.5538,-3.5534,-3.5556,-3.5566,-3.5552,-3.5542,-3.555,-3.556,-3.5553,-3.5559,-3.5585,-3.5574,-3.5473,-3.5459,-3.5444,-3.5435,-3.5586,-3.5586,-3.568,-3.5681,-3.5682]},{"header":{"parameterUnit":"m.s-1","parameterCategory":1,"la1":30.2991,"la2":30.254,"lo1":-89.0895,"lo2":-89.0444,"dy":0.0017,"dx":0.0017,"nx":28,"ny":28,"refTime":"2025-08-09T21:00:00:Z","depth":0,"parameterNumber":3,"parameterNumberName":"V-component_of_WINDS"},"data":[0,0,0,0,0,0,0,0,0,0,0,0,0,0,0,0,0,0,0,0,0,0,0,0,0,0,0,0,0,0,0,0,0,0,0,0,0,0,0,0,0,0,0,0,0,0,0,0,0,0,0,0,0,0,0,0,0,0,-1.2651,-1.2652,0,-1.2682,-1.2683,-1.2683,-1.2694,-1.2693,-1.2693,-1.2693,-1.2725,-1.2726,-1.2727,0,0,0,0,0,0,0,0,0,0,0,0,0,-1.2599,-1.26,-1.2651,-1.2652,-1.2652,-1.2682,-1.2683,-1.2683,-1.2694,-1.2693,-1.2693,-1.2693,-1.2725,-1.2726,-1.2728,0,0,0,0,0,0,0,0,0,0,0,0,0,-1.2625,-1.2601,-1.2651,-1.2661,-1.2662,-1.2682,-1.2683,-1.2683,-1.2694,-1.2693,-1.2693,-1.2693,-1.2725,-1.2726,-1.2728,-1.2741,0,0,-1.2732,-1.2733,0,0,0,0,0,0,0,0,-1.2624,-1.2627,-1.2659,-1.266,-1.2661,-1.2684,-1.2676,-1.2703,-1.2694,-1.2682,-1.2693,-1.2693,-1.2712,-1.2714,-1.2721,-1.2742,-1.2744,-1.2732,-1.2733,-1.2734,-1.2734,0,0,0,0,0,0,0,-1.2622,-1.2626,-1.2664,-1.2659,-1.2661,-1.2663,-1.2667,-1.2681,-1.2697,-1.2683,-1.2683,-1.2687,-1.2713,-1.2719,-1.2722,-1.2744,-1.2732,-1.2734,-1.2734,-1.2735,-1.2777,-1.2778,0,0,0,0,0,0,-1.2619,-1.2624,-1.2663,-1.2664,-1.2642,-1.2664,-1.2668,-1.2677,-1.2697,-1.27,-1.2687,-1.2687,-1.2717,-1.272,-1.2723,-1.2739,-1.2734,-1.2735,-1.2736,-1.2777,-1.2777,-1.2778,0,0,0,0,0,0,-1.2618,-1.2622,-1.2661,-1.2645,-1.265,-1.2665,-1.2675,-1.2678,-1.2684,-1.2701,-1.2704,-1.2691,-1.2717,-1.2721,-1.2736,-1.2741,-1.2736,-1.2737,-1.2777,-1.2777,-1.2778,-1.2773,0,0,0,0,0,0,-1.2616,-1.2622,-1.2627,-1.2645,-1.2651,-1.2674,-1.2675,-1.2678,-1.2687,-1.2688,-1.2705,-1.2708,-1.2717,-1.2734,-1.2738,-1.2743,-1.2738,-1.2777,-1.2777,-1.2777,-1.2773,-1.2773,-1.2773,0,0,0,0,0,-1.2614,-1.2625,-1.2627,-1.2632,-1.2658,-1.2675,-1.2678,-1.2688,-1.2687,-1.2693,-1.2703,-1.2708,-1.2739,-1.2735,-1.274,-1.2745,-1.2776,-1.2777,-1.2777,-1.2772,-1.2773,-1.2773,0,0,0,0,0,0,-1.2607,-1.2627,-1.263,-1.2647,-1.2659,-1.2676,-1.2684,-1.2688,-1.2701,-1.2701,-1.2713,-1.2716,-1.2731,-1.2739,-1.2735,-1.2759,-1.2758,-1.2759,-1.2753,-1.2753,-1.2753,-1.2752,-1.274,0,0,0,0,0,-1.2608,-1.262,-1.2636,-1.2649,-1.2655,-1.2668,-1.2676,-1.2682,-1.2695,-1.2701,-1.2712,-1.2725,-1.2737,-1.2746,-1.2758,-1.2773,-1.2777,-1.2779,-1.2779,-1.278,-1.2781,-1.2789,-1.279,-1.278,-1.278,-1.278,0,0,-1.2609,-1.2621,-1.2628,-1.2648,-1.2658,-1.267,-1.2673,-1.2685,-1.2694,-1.2703,-1.2718,-1.2727,-1.2741,-1.2756,-1.2764,-1.2764,-1.2785,-1.278,-1.278,-1.2782,-1.279,-1.2791,-1.2792,-1.278,-1.278,-1.278,0,0,-1.2617,-1.2627,-1.2639,-1.2649,-1.2664,-1.2673,-1.2675,-1.2692,-1.2698,-1.2713,-1.272,-1.273,-1.2752,-1.2762,-1.277,-1.278,-1.2785,-1.2784,-1.2786,-1.2794,-1.2795,-1.2795,-1.2799,-1.2801,-1.2785,-1.2785,-1.2785,0,-1.2617,-1.2635,-1.2645,-1.2657,-1.2666,-1.2673,-1.2685,-1.2694,-1.2712,-1.2718,-1.2718,-1.2744,-1.2755,-1.2772,-1.2775,-1.2781,-1.2784,-1.2783,-1.2794,-1.2795,-1.2796,-1.2799,-1.2801,-1.2785,-1.2785,-1.2785,-1.2785,0,-1.2634,-1.2647,-1.2654,-1.2672,-1.2681,-1.2693,-1.2704,-1.2712,-1.2717,-1.2725,-1.274,-1.2753,-1.2768,-1.2772,-1.2777,-1.279,-1.279,-1.2791,-1.2791,-1.2796,-1.28,-1.2802,-1.2785,-1.2785,-1.2785,-1.2785,0,0,-1.2641,-1.2662,-1.2665,-1.2673,-1.2689,-1.2699,-1.2711,-1.2725,-1.2732,-1.2744,-1.2754,-1.2771,-1.2773,-1.2781,-1.2788,-1.2795,-1.2802,-1.2795,-1.2796,-1.2797,-1.2817,-1.2816,-1.2818,-1.2805,-1.2805,-1.2805,-1.2816,0,-1.2652,-1.2674,-1.2682,-1.27,-1.2711,-1.2717,-1.2728,-1.2738,-1.2746,-1.2757,-1.2765,-1.2777,-1.2778,-1.2783,-1.279,-1.28,-1.2806,-1.2799,-1.2815,-1.2815,-1.2812,-1.282,-1.282,-1.2829,-1.2817,-1.2818,-1.2818,0,-1.2668,-1.268,-1.2699,-1.2713,-1.2718,-1.2727,-1.2741,-1.2751,-1.2763,-1.2768,-1.2777,-1.2782,-1.2795,-1.2793,-1.281,-1.2804,-1.2811,-1.2816,-1.2817,-1.282,-1.2817,-1.2823,-1.2832,-1.2834,-1.282,-1.282,-1.282,0,-1.2672,-1.2692,-1.2706,-1.2712,-1.2729,-1.2735,-1.2742,-1.2754,-1.2762,-1.2773,-1.2779,-1.2791,-1.2798,-1.2808,-1.2817,-1.2814,-1.2833,-1.2832,-1.2837,-1.2837,-1.2842,-1.2842,-1.2853,-1.2845,-1.2845,-1.2845,-1.2845,0,-1.2684,-1.2696,-1.2708,-1.2717,-1.2729,-1.2738,-1.275,-1.2757,-1.2768,-1.2778,-1.2783,-1.2792,-1.2803,-1.2813,-1.282,-1.2833,-1.2836,-1.284,-1.2842,-1.284,-1.284,-1.2846,-1.2846,-1.2845,-1.2845,-1.2845,-1.2845,0,-1.2691,-1.27,-1.2716,-1.2729,-1.2733,-1.2742,-1.2754,-1.2762,-1.2769,-1.2781,-1.2785,-1.2796,-1.2808,-1.2817,-1.2833,-1.2838,-1.2852,-1.2853,-1.2848,-1.2849,-1.2855,-1.2854,-1.2871,-1.2873,-1.2862,-1.2863,-1.2863,0,-1.2699,-1.2708,-1.2723,-1.2729,-1.2736,-1.2748,-1.2755,-1.2763,-1.2771,-1.2785,-1.2791,-1.2804,-1.2814,-1.2834,-1.2843,-1.2856,-1.2858,-1.2863,-1.286,-1.2858,-1.2859,-1.2858,-1.2859,-1.2863,-1.2864,-1.2864,-1.2864,0,-1.2712,-1.2716,-1.2727,-1.2739,-1.2748,-1.2758,-1.2768,-1.2773,-1.2782,-1.2791,-1.2803,-1.2811,-1.2827,-1.284,-1.2852,-1.2859,-1.2863,-1.2864,-1.2866,-1.2865,-1.2862,-1.2864,-1.285,-1.2864,-1.2864,-1.2864,-1.2864,-1.2864,-1.2721,-1.2729,-1.274,-1.2751,-1.2759,-1.2768,-1.2777,-1.2784,-1.2795,-1.2808,-1.2812,-1.2825,-1.2835,-1.2853,-1.286,-1.287,-1.287,-1.2873,-1.2874,-1.2875,-1.2875,-1.2859,-1.2872,-1.2872,-1.2872,-1.2872,-1.2872,0,-1.2735,-1.2742,-1.2752,-1.2766,-1.2775,-1.2776,-1.2787,-1.2794,-1.2805,-1.2815,-1.2825,-1.2839,-1.285,-1.286,-1.2872,-1.2878,-1.288,-1.2881,-1.2881,-1.2883,-1.2874,-1.2871,-1.2879,-1.2879,-1.2879,-1.2879,-1.2879,-1.2879,-1.2743,-1.2757,-1.2761,-1.2778,-1.2785,-1.2797,-1.2803,-1.2811,-1.2819,-1.2834,-1.2843,-1.2849,-1.2859,-1.2871,-1.2882,-1.2884,-1.2889,-1.2889,-1.2893,-1.2884,-1.2884,-1.2883,-1.288,-1.289,-1.289,-1.2901,-1.2901,-1.2901]}]]